我用 App 记录自己跑步 2 年了,下面列表展示的是 2022 的数据


2022 Journey
39 Runs
214.7 KM
7:07 Avg Pace
4 day Streak
149 Avg Heart Rate

2021 Journey
10 Runs
48.5 KM
7:29 Avg Pace
4 day Streak
155 Avg Heart Rate

Total Journey
49 Runs
263.2 KM
7:11 Avg Pace
4 day Streak
150 Avg Heart Rate

KMPaceBPMTimeDate
傍晚跑步4.47:4515334min2022-06-13 21:11:58
傍晚跑步12.47:0713388min2022-06-11 20:55:37
傍晚跑步5.16:3813633min2022-06-07 20:16:04
傍晚跑步6.27:1013844min2022-06-06 20:48:53
夜晚跑步1.711:4713820min2022-06-04 22:13:18
傍晚跑步5.17:1913837min2022-05-18 19:52:37
傍晚跑步5.16:3315133min2022-05-10 20:19:46
傍晚跑步6.77:2514449min2022-05-08 20:12:58
傍晚跑步4.47:1712932min2022-05-05 20:31:17
傍晚跑步3.06:5114520min2022-05-04 21:16:54
傍晚跑步5.17:0714036min2022-05-03 21:29:14
傍晚跑步5.06:5115034min2022-05-02 21:30:43
傍晚跑步4.16:2515326min2022-04-30 20:57:15
午后跑步3.06:3215419min2022-04-25 18:30:26
傍晚跑步3.56:1716422min2022-04-24 21:02:45
傍晚跑步4.06:2914725min2022-04-17 20:36:29
傍晚跑步2.07:4912415min2022-04-11 20:24:54
傍晚跑步4.16:3315726min2022-04-08 21:00:03
傍晚跑步2.77:1719min2022-04-06 20:53:32
傍晚跑步5.37:1115038min2022-03-19 19:42:13
傍晚跑步5.28:1542min2022-03-18 20:49:04
傍晚跑步5.07:0314735min2022-03-14 21:30:15
傍晚跑步6.07:1414743min2022-03-13 20:38:10
傍晚跑步5.16:5714635min2022-03-12 19:44:51
傍晚跑步13.47:34144101min2022-03-11 20:44:01
傍晚跑步5.16:5115534min2022-03-06 19:20:46
傍晚跑步10.97:3216482min2022-03-05 20:13:35
傍晚跑步10.07:0316070min2022-02-26 21:03:42
傍晚跑步5.27:1214637min2022-02-14 20:50:10
傍晚跑步5.97:1914943min2022-02-11 20:30:29
傍晚跑步6.46:5615144min2022-01-18 21:12:37
傍晚跑步3.06:2516019min2022-01-16 21:53:33
傍晚跑步5.16:4015734min2022-01-15 20:10:08
傍晚跑步10.07:4715577min2022-01-14 20:33:42
傍晚跑步5.17:1416636min2022-01-09 21:00:43
傍晚跑步5.56:4416537min2022-01-08 20:09:37
傍晚跑步7.26:5316049min2022-01-07 20:34:00
傍晚跑步1.67:0113511min2022-01-02 21:54:58
傍晚跑步6.17:2216244min2022-01-01 21:20:35